Location: Dimsdale
(55.1333°N, 118.9833°W)
Time: 09:50:09
(UTC+00:00)

PCSat - Pass Details

Date: 06 December 2023
Orbit: 784 x 791 km, 67.0° (Epoch: 23 February)

Event Time Altitude Azimuth Distance (km) Brightness Sun altitude
Exits shadow 13:38:45 37° 269° (W) 1,218 10.0 -19.4°
Maximum altitude 13:40:33 52° 322° (NW) 975 9.7 -19.2°
Drops below altitude 10° 13:45:51 10° 39° (NE) 2,364 12.4 -18.4°
Sets 13:48:21 0° 44° (NE) 3,297 13.2 -18.1°
